Location: Buena Vista
(37.7110°N, 119.7938°W)
Time: 22:49:40
(UTC+00:00)

Hubble Space Telescope - Pass Details

Date: 19 August 2024
Orbit: 505 x 509 km, 28.5° (Epoch: 16 September)

Event Time Altitude Azimuth Distance (km) Brightness Sun altitude
Exits shadow 12:14:51 15° 210° (SSW) 1,399 2.4 -12.6°
Maximum altitude 12:15:52 17° 191° (S) 1,333 2.4 -12.4°
Drops below altitude 10° 12:18:28 10° 150° (SSE) 1,709 3.4 -11.9°
Sets 12:21:17 0° 129° (SE) 2,594 4.6 -11.4°
